Terminal Aerodrome Forecast
Issued by NWS Detroit/Pontiac, MI

Home | Current Version | Previous Version | Text Only | Print | Product List | Glossary On
Versions: 1 2 3 4 5 6 7 8 9 10 11 12 13 14 15 16 17 18 19
688
FTUS43 KDTX 022326
TAFFNT
TAF
KFNT 022326Z 0300/0324 VRB04KT P6SM SCT050
     FM030100 VRB03KT P6SM SKC
     FM030800 VRB02KT 3SM BR SCT250
     FM031200 VRB04KT P6SM SKC
     FM031600 29005KT P6SM SCT050
     FM031800 26005KT P6SM BKN050=

USA.gov is the U.S. government's official web portal to all federal, state and local government web resources and services.